Weather History for Clinton-Sherman, OK

Change the Weather History Date:

Wednesday, March 12, 2014

  Actual Average Record
Temperature  
Mean Temperature 46 °F -  
Max Temperature 57 °F 56 °F 84 °F (2005)
Min Temperature 34 °F 35 °F 14 °F (1998)
Degree Days  
Heating Degree Days 20    
Moisture  
Dew Point 22 °F    
Average Humidity 47    
Maximum Humidity 79    
Minimum Humidity 20    
Precipitation  
Precipitation 0.00 in - - ()
Sea Level Pressure  
Sea Level Pressure 30.27 in    
Wind  
Wind Speed 22 mph (NNW)    
Max Wind Speed 38 mph    
Max Gust Speed 53 mph    
Visibility 10 miles    
Events      
Averages and records for this station are not official NWS values.
T = Trace of Precipitation, MM = Missing Value Source: NWS Daily Summary

Daily Weather History Graph

Daily Weather History Graph

Search for Another Location

Airport:

Trip Planner

Search our weather history database for the weather conditions in past years. The results will help you decide how hot, cold, wet, or windy it might be!

Date:

Astronomy

Mar. 12, 2014 Rise Set
Actual Time 7:51 AM CDT 7:41 PM CDT
Civil Twilight 7:26 AM CDT 8:07 PM CDT
Nautical Twilight 6:56 AM CDT 8:36 PM CDT
Astronomical Twilight 6:27 AM CDT 9:06 PM CDT
Moon 4:19 PM CDT (3/12) 5:17 AM CDT (3/12)
Length of Visible Light 12h 40m
Length of Day
11h 50m
Waxing Gibbous, 85% of the Moon is Illuminated
Mar 12
Waxing Gibbous
Mar 16
Full
Mar 23
Last Quarter
Mar 30
New
Apr 7
First Quarter

Hourly Weather History & Observations

Time (CDT) Temp. Windchill Dew Point Humidity Pressure Visibility Wind Dir Wind Speed Gust Speed Precip Events Conditions
12:53 AM 42.1 °F 30.8 °F 30.0 °F 62% 30.08 in 10.0 mi North 33.4 mph 50.6 mph N/A   Partly Cloudy
1:53 AM 39.9 °F 27.1 °F 28.9 °F 65% 30.12 in 10.0 mi North 38.0 mph 52.9 mph N/A   Mostly Cloudy
2:53 AM 37.9 °F 26.3 °F 27.0 °F 65% 30.15 in 10.0 mi North 26.5 mph 32.2 mph N/A   Clear
3:53 AM 37.0 °F 26.2 °F 27.0 °F 67% 30.17 in 10.0 mi North 21.9 mph - N/A   Clear
4:53 AM 37.0 °F 26.2 °F 27.0 °F 67% 30.19 in 10.0 mi North 21.9 mph 27.6 mph N/A   Clear
5:53 AM 36.0 °F 25.6 °F 28.0 °F 73% 30.23 in 10.0 mi North 18.4 mph - N/A   Clear
6:53 AM 35.1 °F 23.5 °F 28.0 °F 76% 30.25 in 10.0 mi North 21.9 mph - N/A   Clear
7:53 AM 34.0 °F 23.0 °F 28.0 °F 79% 30.30 in 10.0 mi NNW 18.4 mph - N/A   Clear
8:53 AM 37.0 °F 27.4 °F 28.9 °F 73% 30.32 in 10.0 mi North 17.3 mph 24.2 mph N/A   Clear
9:53 AM 42.1 °F 32.3 °F 28.9 °F 60% 30.35 in 10.0 mi North 24.2 mph 29.9 mph N/A   Clear
10:53 AM 46.0 °F 38.0 °F 27.0 °F 47% 30.37 in 10.0 mi North 21.9 mph - N/A   Clear
11:53 AM 48.9 °F - 24.1 °F 38% 30.37 in 10.0 mi North 19.6 mph 25.3 mph N/A   Clear
12:53 PM 52.0 °F - 19.0 °F 27% 30.36 in 10.0 mi North 17.3 mph 21.9 mph N/A   Clear
1:53 PM 54.0 °F - 15.1 °F 22% 30.34 in 10.0 mi NNW 17.3 mph 24.2 mph N/A   Clear
2:53 PM 55.9 °F - 15.1 °F 20% 30.31 in 10.0 mi NNW 13.8 mph 23.0 mph N/A   Clear
3:53 PM 55.9 °F - 15.1 °F 20% 30.28 in 10.0 mi North 6.9 mph - N/A   Clear
4:53 PM 57.0 °F - 16.0 °F 20% 30.27 in 10.0 mi North 11.5 mph - N/A   Clear
5:53 PM 57.0 °F - 16.0 °F 20% 30.26 in 10.0 mi NNW 11.5 mph 17.3 mph N/A   Clear
6:53 PM 55.0 °F - 17.1 °F 23% 30.26 in 10.0 mi NNW 10.4 mph - N/A   Clear
7:53 PM 46.0 °F 43.1 °F 18.0 °F 33% 30.28 in 10.0 mi WNW 5.8 mph - N/A   Clear
8:53 PM 46.0 °F 42.5 °F 17.1 °F 31% 30.28 in 10.0 mi West 6.9 mph - N/A   Clear
9:53 PM 39.0 °F 34.0 °F 19.0 °F 45% 30.29 in 10.0 mi West 6.9 mph - N/A   Clear
10:53 PM 37.9 °F 32.1 °F 19.0 °F 47% 30.29 in 10.0 mi West 8.1 mph - N/A   Clear
11:53 PM 37.9 °F 31.5 °F 19.0 °F 47% 30.28 in 10.0 mi WSW 9.2 mph - N/A   Clear